Flag for Burundi Weather past 2 weeks in Muyinga, Burundi

Now
61 °F

Passing clouds.


Feels Like: 61 °F
Forecast: 56 / 77 °F
Wind: 3 mph from West

Location: Kigali Airport

Current Time: Jan 26, 2015 at 4:46:02 AM

Latest Report: Jan 26, 2015 at 4:00 AM


Visibility: 5 mi

Pressure: 30.09 "Hg

Humidity: 100%

Dew point: 61 °F

Location of MuyingaLocation

Historic Weather in Muyinga — Graph

°F

Muyinga temperature yesterday

Maximum temperature yesterday: 75 °F (at 5:00 PM)
Minimum temperature yesterday: 59 °F (at 3:00 AM)
Average temperature yesterday: 67 °F

Past Weeks' High & Low Weather Summary

 TemperatureHumidityPressure
High88 °F (Jan 14, 1:00 PM)100% (Jan 11, 3:00 AM)30.24 "Hg (Jan 11, 3:00 AM)
Low59 °F (Jan 23, 3:30 AM)29% (Jan 17, 2:30 PM)29.98 "Hg (Jan 17, 3:00 PM)
Average71 °F77%30.11 "Hg
* Reported Jan 11 3:00 AM — Jan 26 3:30 AM, Muyinga, Weather by CustomWeather, © 2014

Note: Actual official high and low records may vary slightly from our data, if they occured in-between our weather recording intervals... More about our weather records

Advertising

Muyinga weather history for previous 24 hours

 ConditionsComfort  
Time TempWeatherWind HumidityBarometerVisibility
3:30 AM
Jan 26
61 °FPassing clouds.3 mph100%30.09 "Hg5 mi
3:00 AM61 °FPassing clouds.No wind100%30.09 "Hg5 mi
2:30 AM61 °FPassing clouds.3 mph100%30.09 "Hg5 mi
1:30 AM61 °FPassing clouds.3 mph100%30.09 "HgN/A
1:00 AM63 °FPassing clouds.3 mph100%30.12 "HgN/A
12:30 AM63 °FPassing clouds.3 mph100%30.12 "HgN/A
11:30 PM
Jan 25
63 °FPassing clouds.3 mph100%30.15 "HgN/A
11:00 PM63 °FPassing clouds.No wind100%30.15 "HgN/A
10:30 PM64 °FPassing clouds.No wind100%30.15 "HgN/A
10:00 PM64 °FPassing clouds.No wind100%30.15 "HgN/A
9:30 PM64 °FPassing clouds.3 mph100%30.15 "HgN/A
9:00 PM64 °FPassing clouds.3 mph100%30.12 "HgN/A
8:30 PM66 °FPartly cloudy.5 mph94%30.12 "HgN/A
8:00 PM66 °FPartly cloudy.6 mph94%30.12 "HgN/A
7:30 PM68 °FPassing clouds.5 mph88%30.09 "HgN/A
7:00 PM68 °FPassing clouds.No wind88%30.09 "HgN/A
6:30 PM68 °FPartly cloudy.3 mph88%30.07 "HgN/A
6:00 PM72 °FBroken clouds.5 mph78%30.07 "HgN/A
5:30 PM73 °FScattered clouds.No wind74%30.07 "HgN/A
5:00 PM75 °FScattered clouds.No wind69%30.07 "HgN/A
4:00 PM72 °FPartly sunny.No wind78%30.07 "HgN/A
3:30 PM72 °FPartly sunny.No wind78%30.04 "HgN/A
3:00 PM72 °FPartly sunny.3 mph78%30.07 "HgN/A
2:30 PM72 °FPartly sunny.3 mph78%30.09 "HgN/A
1:30 PM72 °FPartly sunny.7 mph78%30.09 "HgN/A
1:00 PM72 °FPartly sunny.8 mph78%30.12 "Hg4 mi
12:30 PM72 °FBroken clouds.12 mph78%30.12 "HgN/A
12:00 PM73 °FPartly sunny.9 mph83%30.12 "HgN/A
11:30 AM73 °FScattered clouds.No wind78%30.15 "HgN/A
11:00 AM73 °FScattered clouds.No wind78%30.15 "Hg6 mi
10:30 AM72 °FScattered clouds.No wind83%30.15 "Hg6 mi
10:00 AM68 °FScattered clouds.No wind100%30.15 "Hg4 mi
9:30 AM64 °FScattered clouds.No wind100%30.15 "Hg4 mi
9:00 AM63 °FFog.No wind100%30.15 "Hg2 mi
8:00 AM61 °FFog.No wind100%30.15 "Hg0 mi
7:30 AM59 °FFog.No wind100%30.12 "Hg0 mi
7:00 AM61 °FFog.No wind100%30.12 "Hg0 mi
4:00 AM59 °FFog.No wind100%30.07 "Hg0 mi
Weather by CustomWeather, © 2014

See weather overviewHow to use our weather pages